Year,Month,Day,Hour,Minute,Value (Times are PST for windgust in km/hr)
2012,03,11,00,00,19.30
2012,03,11,00,01,22.50
2012,03,11,00,02,14.50
2012,03,11,00,03,17.70
2012,03,11,00,04,12.90
2012,03,11,00,05,12.90
2012,03,11,00,06,9.60
2012,03,11,00,07,17.70
2012,03,11,00,08,14.50
2012,03,11,00,09,16.10
2012,03,11,00,10,16.10
2012,03,11,00,11,14.50
2012,03,11,00,12,16.10
2012,03,11,00,13,17.70
2012,03,11,00,14,16.10
2012,03,11,00,15,16.10
2012,03,11,00,16,16.10
2012,03,11,00,17,19.30
2012,03,11,00,18,20.90
2012,03,11,00,19,12.90
2012,03,11,00,20,11.30
2012,03,11,00,21,11.30
2012,03,11,00,22,8.10
2012,03,11,00,23,14.50
2012,03,11,00,24,17.70
2012,03,11,00,25,19.30
2012,03,11,00,26,20.90
2012,03,11,00,27,12.90
2012,03,11,00,28,12.90
2012,03,11,00,29,20.90
2012,03,11,00,30,19.30
2012,03,11,00,31,12.90
2012,03,11,00,32,24.20
2012,03,11,00,33,14.50
2012,03,11,00,34,16.10
2012,03,11,00,35,16.10
2012,03,11,00,36,12.90
2012,03,11,00,37,12.90
2012,03,11,00,38,12.90
2012,03,11,00,39,17.70
2012,03,11,00,40,9.60
2012,03,11,00,41,14.50
2012,03,11,00,42,16.10
2012,03,11,00,43,16.10
2012,03,11,00,44,14.50
2012,03,11,00,45,14.50
2012,03,11,00,46,12.90
2012,03,11,00,47,11.30
2012,03,11,00,48,9.60
2012,03,11,00,49,6.40
2012,03,11,00,50,9.60
2012,03,11,00,51,6.40
2012,03,11,00,52,9.60
2012,03,11,00,53,12.90
2012,03,11,00,54,11.30
2012,03,11,00,55,17.70
2012,03,11,00,56,11.30
2012,03,11,00,57,20.90
2012,03,11,00,58,16.10
2012,03,11,00,59,17.70
2012,03,11,01,00,14.50
2012,03,11,01,01,12.90
2012,03,11,01,02,19.30
2012,03,11,01,03,17.70
2012,03,11,01,04,12.90
2012,03,11,01,05,14.50
2012,03,11,01,06,11.30
2012,03,11,01,07,8.10
2012,03,11,01,08,6.40
2012,03,11,01,09,12.90
2012,03,11,01,10,8.10
2012,03,11,01,11,11.30
2012,03,11,01,12,8.10
2012,03,11,01,13,8.10
2012,03,11,01,14,9.60
2012,03,11,01,15,14.50
2012,03,11,01,16,11.30
2012,03,11,01,17,14.50
2012,03,11,01,18,16.10
2012,03,11,01,19,11.30
2012,03,11,01,20,16.10
2012,03,11,01,21,16.10
2012,03,11,01,22,11.30
2012,03,11,01,23,17.70
2012,03,11,01,24,12.90
2012,03,11,01,25,12.90
2012,03,11,01,26,8.10
2012,03,11,01,27,3.20
2012,03,11,01,28,9.60
2012,03,11,01,29,8.10
2012,03,11,01,30,6.40
2012,03,11,01,31,3.20
2012,03,11,01,32,9.60
2012,03,11,01,33,9.60
2012,03,11,01,34,12.90
2012,03,11,01,35,6.40
2012,03,11,01,36,6.40
2012,03,11,01,37,12.90
2012,03,11,01,38,9.60
2012,03,11,01,39,9.60
2012,03,11,01,40,11.30
2012,03,11,01,41,8.10
2012,03,11,01,42,9.60
2012,03,11,01,43,11.30
2012,03,11,01,44,11.30
2012,03,11,01,45,3.20
2012,03,11,01,46,6.40
2012,03,11,01,47,11.30
2012,03,11,01,48,8.10
2012,03,11,01,49,6.40
2012,03,11,01,50,3.20
2012,03,11,01,51,9.60
2012,03,11,01,52,11.30
2012,03,11,01,53,9.60
2012,03,11,01,54,9.60
2012,03,11,01,55,9.60
2012,03,11,01,56,8.10
2012,03,11,01,57,6.40
2012,03,11,01,58,19.30
2012,03,11,01,59,12.90
2012,03,11,03,00,14.50
2012,03,11,03,01,16.10
2012,03,11,03,02,8.10
2012,03,11,03,03,11.30
2012,03,11,03,04,17.70
2012,03,11,03,05,14.50
2012,03,11,03,06,17.70
2012,03,11,03,07,11.30
2012,03,11,03,08,16.10
2012,03,11,03,09,12.90
2012,03,11,03,10,16.10
2012,03,11,03,11,20.90
2012,03,11,03,12,14.50
2012,03,11,03,13,12.90
2012,03,11,03,14,12.90
2012,03,11,03,15,11.30
2012,03,11,03,16,6.40
2012,03,11,03,17,11.30
2012,03,11,03,18,9.60
2012,03,11,03,19,8.10
2012,03,11,03,20,3.20
2012,03,11,03,21,11.30
2012,03,11,03,22,8.10
2012,03,11,03,23,14.50
2012,03,11,03,24,8.10
2012,03,11,03,25,9.60
2012,03,11,03,26,9.60
2012,03,11,03,27,12.90
2012,03,11,03,28,8.10
2012,03,11,03,29,16.10
2012,03,11,03,30,16.10
2012,03,11,03,31,17.70
2012,03,11,03,32,14.50
2012,03,11,03,33,25.70
2012,03,11,03,34,20.90
2012,03,11,03,35,9.60
2012,03,11,03,36,8.10
2012,03,11,03,37,6.40
2012,03,11,03,38,12.90
2012,03,11,03,39,8.10
2012,03,11,03,40,11.30
2012,03,11,03,41,9.60
2012,03,11,03,42,11.30
2012,03,11,03,43,9.60
2012,03,11,03,44,9.60
2012,03,11,03,45,8.10
2012,03,11,03,46,9.60
2012,03,11,03,47,6.40
2012,03,11,03,48,6.40
2012,03,11,03,49,4.80
2012,03,11,03,50,4.80
2012,03,11,03,51,9.60
2012,03,11,03,52,9.60
2012,03,11,03,53,8.10
2012,03,11,03,54,11.30
2012,03,11,03,55,3.20
2012,03,11,03,56,6.40
2012,03,11,03,57,6.40
2012,03,11,03,58,4.80
2012,03,11,03,59,3.20
2012,03,11,04,00,3.20
2012,03,11,04,01,3.20
2012,03,11,04,02,3.20
2012,03,11,04,03,4.80
2012,03,11,04,04,3.20
2012,03,11,04,05,4.80
2012,03,11,04,06,11.30
2012,03,11,04,07,8.10
2012,03,11,04,08,8.10
2012,03,11,04,09,8.10
2012,03,11,04,10,6.40
2012,03,11,04,11,6.40
2012,03,11,04,13,1.60
2012,03,11,04,15,1.60
2012,03,11,04,16,1.60
2012,03,11,04,21,6.40
2012,03,11,04,22,3.20
2012,03,11,04,25,1.60
2012,03,11,04,27,3.20
2012,03,11,04,28,3.20
2012,03,11,04,29,8.10
2012,03,11,04,30,9.60
2012,03,11,04,31,3.20
2012,03,11,04,32,3.20
2012,03,11,04,33,3.20
2012,03,11,04,34,3.20
2012,03,11,04,35,8.10
2012,03,11,04,36,6.40
2012,03,11,04,37,3.20
2012,03,11,04,38,3.20
2012,03,11,04,39,9.60
2012,03,11,04,40,8.10
2012,03,11,04,41,6.40
2012,03,11,04,42,8.10
2012,03,11,04,43,9.60
2012,03,11,04,44,11.30
2012,03,11,04,45,11.30
2012,03,11,04,46,9.60
2012,03,11,04,47,8.10
2012,03,11,04,48,6.40
2012,03,11,04,49,12.90
2012,03,11,04,50,8.10
2012,03,11,04,51,8.10
2012,03,11,04,52,8.10
2012,03,11,04,53,11.30
2012,03,11,04,54,11.30
2012,03,11,04,55,9.60
2012,03,11,04,56,6.40
2012,03,11,04,57,8.10
2012,03,11,04,58,8.10
2012,03,11,04,59,8.10
2012,03,11,05,00,8.10
2012,03,11,05,01,6.40
2012,03,11,05,02,8.10
2012,03,11,05,03,6.40
2012,03,11,05,04,8.10
2012,03,11,05,05,12.90
2012,03,11,05,06,12.90
2012,03,11,05,07,11.30
2012,03,11,05,08,27.40
2012,03,11,05,09,29.00
2012,03,11,05,10,22.50
2012,03,11,05,11,14.50
2012,03,11,05,12,12.90
2012,03,11,05,13,12.90
2012,03,11,05,14,12.90
2012,03,11,05,15,9.60
2012,03,11,05,16,11.30
2012,03,11,05,17,8.10
2012,03,11,05,18,16.10
2012,03,11,05,19,11.30
2012,03,11,05,20,11.30
2012,03,11,05,21,9.60
2012,03,11,05,22,11.30
2012,03,11,05,23,4.80
2012,03,11,05,24,9.60
2012,03,11,05,25,8.10
2012,03,11,05,26,6.40
2012,03,11,05,27,6.40
2012,03,11,05,28,6.40
2012,03,11,05,29,4.80
2012,03,11,05,30,4.80
2012,03,11,05,31,6.40
2012,03,11,05,32,6.40
2012,03,11,05,33,6.40
2012,03,11,05,34,4.80
2012,03,11,05,35,4.80
2012,03,11,05,36,4.80
2012,03,11,05,37,4.80
2012,03,11,05,38,4.80
2012,03,11,05,39,4.80
2012,03,11,05,40,4.80
2012,03,11,05,41,8.10
2012,03,11,05,42,4.80
2012,03,11,05,43,3.20
2012,03,11,05,44,4.80
2012,03,11,05,45,4.80
2012,03,11,05,46,3.20
2012,03,11,05,48,1.60
2012,03,11,05,49,4.80
2012,03,11,05,50,3.20
2012,03,11,05,51,4.80
2012,03,11,05,52,4.80
2012,03,11,05,53,3.20
2012,03,11,05,54,4.80
2012,03,11,05,55,3.20
2012,03,11,05,56,3.20
2012,03,11,05,57,3.20
2012,03,11,05,58,3.20
2012,03,11,05,59,4.80
2012,03,11,06,00,3.20
2012,03,11,06,01,4.80
2012,03,11,06,02,4.80
2012,03,11,06,03,4.80
2012,03,11,06,04,4.80
2012,03,11,06,05,3.20
2012,03,11,06,06,3.20
2012,03,11,06,07,6.40
2012,03,11,06,08,6.40
2012,03,11,06,09,6.40
2012,03,11,06,10,6.40
2012,03,11,06,11,4.80
2012,03,11,06,12,6.40
2012,03,11,06,13,6.40
2012,03,11,06,14,6.40
2012,03,11,06,15,6.40
2012,03,11,06,16,4.80
2012,03,11,06,17,8.10
2012,03,11,06,18,12.90
2012,03,11,06,19,8.10
2012,03,11,06,20,6.40
2012,03,11,06,21,6.40
2012,03,11,06,22,14.50
2012,03,11,06,23,8.10
2012,03,11,06,24,6.40
2012,03,11,06,25,9.60
2012,03,11,06,26,8.10
2012,03,11,06,27,8.10
2012,03,11,06,28,11.30
2012,03,11,06,29,8.10
2012,03,11,06,30,11.30
2012,03,11,06,31,9.60
2012,03,11,06,32,9.60
2012,03,11,06,33,9.60
2012,03,11,06,34,9.60
2012,03,11,06,35,8.10
2012,03,11,06,36,8.10
2012,03,11,06,37,8.10
2012,03,11,06,38,14.50
2012,03,11,06,39,19.30
2012,03,11,06,40,19.30
2012,03,11,06,41,17.70
2012,03,11,06,42,14.50
2012,03,11,06,43,11.30
2012,03,11,06,44,16.10
2012,03,11,06,45,29.00
2012,03,11,06,46,22.50
2012,03,11,06,47,22.50
2012,03,11,06,48,19.30
2012,03,11,06,49,22.50
2012,03,11,06,50,9.60
2012,03,11,06,51,14.50
2012,03,11,06,52,14.50
2012,03,11,06,53,12.90
2012,03,11,06,54,17.70
2012,03,11,06,55,19.30
2012,03,11,06,56,19.30
2012,03,11,06,57,19.30
2012,03,11,06,58,17.70
2012,03,11,06,59,19.30
2012,03,11,07,00,19.30
2012,03,11,07,01,16.10
2012,03,11,07,02,24.20
2012,03,11,07,03,16.10
2012,03,11,07,04,11.30
2012,03,11,07,05,11.30
2012,03,11,07,06,22.50
2012,03,11,07,07,17.70
2012,03,11,07,08,30.60
2012,03,11,07,09,32.20
2012,03,11,07,10,19.30
2012,03,11,07,11,32.20
2012,03,11,07,12,22.50
2012,03,11,07,13,29.00
2012,03,11,07,14,16.10
2012,03,11,07,15,9.60
2012,03,11,07,16,20.90
2012,03,11,07,17,14.50
2012,03,11,07,18,16.10
2012,03,11,07,19,22.50
2012,03,11,07,20,17.70
2012,03,11,07,21,17.70
2012,03,11,07,22,22.50
2012,03,11,07,23,20.90
2012,03,11,07,24,12.90
2012,03,11,07,25,6.40
2012,03,11,07,26,20.90
2012,03,11,07,27,22.50
2012,03,11,07,28,14.50
2012,03,11,07,29,16.10
2012,03,11,07,30,17.70
2012,03,11,07,31,14.50
2012,03,11,07,32,8.10
2012,03,11,07,33,3.20
2012,03,11,07,34,12.90
2012,03,11,07,35,16.10
2012,03,11,07,36,14.50
2012,03,11,07,37,17.70
2012,03,11,07,38,16.10
2012,03,11,07,39,11.30
2012,03,11,07,40,12.90
2012,03,11,07,41,11.30
2012,03,11,07,42,17.70
2012,03,11,07,43,20.90
2012,03,11,07,44,14.50
2012,03,11,07,45,12.90
2012,03,11,07,46,9.60
2012,03,11,07,47,8.10
2012,03,11,07,48,8.10
2012,03,11,07,49,14.50
2012,03,11,07,50,12.90
2012,03,11,07,51,17.70
2012,03,11,07,52,14.50
2012,03,11,07,53,8.10
2012,03,11,07,54,14.50
2012,03,11,07,55,12.90
2012,03,11,07,56,14.50
2012,03,11,07,57,9.60
2012,03,11,07,58,25.70
2012,03,11,07,59,14.50
2012,03,11,08,00,19.30
2012,03,11,08,01,20.90
2012,03,11,08,02,19.30
2012,03,11,08,03,16.10
2012,03,11,08,04,11.30
2012,03,11,08,05,20.90
2012,03,11,08,06,14.50
2012,03,11,08,07,19.30
2012,03,11,08,08,16.10
2012,03,11,08,09,20.90
2012,03,11,08,10,14.50
2012,03,11,08,11,16.10
2012,03,11,08,12,16.10
2012,03,11,08,13,17.70
2012,03,11,08,14,17.70
2012,03,11,08,15,14.50
2012,03,11,08,16,20.90
2012,03,11,08,17,24.20
2012,03,11,08,18,14.50
2012,03,11,08,19,32.20
2012,03,11,08,20,19.30
2012,03,11,08,21,22.50
2012,03,11,08,22,19.30
2012,03,11,08,23,29.00
2012,03,11,08,24,38.60
2012,03,11,08,25,25.70
2012,03,11,08,26,33.80
2012,03,11,08,27,19.30
2012,03,11,08,28,17.70
2012,03,11,08,29,17.70
2012,03,11,08,30,24.20
2012,03,11,08,31,16.10
2012,03,11,08,32,22.50
2012,03,11,08,33,27.40
2012,03,11,08,34,20.90
2012,03,11,08,35,27.40
2012,03,11,08,36,29.00
2012,03,11,08,37,35.40
2012,03,11,08,38,20.90
2012,03,11,08,39,19.30
2012,03,11,08,40,19.30
2012,03,11,08,41,16.10
2012,03,11,08,42,20.90
2012,03,11,08,43,17.70
2012,03,11,08,44,14.50
2012,03,11,08,45,14.50
2012,03,11,08,46,11.30
2012,03,11,08,47,16.10
2012,03,11,08,48,12.90
2012,03,11,08,49,14.50
2012,03,11,08,50,14.50
2012,03,11,08,51,9.60
2012,03,11,08,52,8.10
2012,03,11,08,53,4.80
2012,03,11,08,54,11.30
2012,03,11,08,55,4.80
2012,03,11,08,56,4.80
2012,03,11,08,57,6.40
2012,03,11,08,58,3.20
2012,03,11,08,59,4.80
2012,03,11,09,00,6.40
2012,03,11,09,01,6.40
2012,03,11,09,02,6.40
2012,03,11,09,03,8.10
2012,03,11,09,04,8.10
2012,03,11,09,05,3.20
2012,03,11,09,06,6.40
2012,03,11,09,07,8.10
2012,03,11,09,08,4.80
2012,03,11,09,09,6.40
2012,03,11,09,10,4.80
2012,03,11,09,11,3.20
2012,03,11,09,12,4.80
2012,03,11,09,13,3.20
2012,03,11,09,14,3.20
2012,03,11,09,15,3.20
2012,03,11,09,16,3.20
2012,03,11,09,17,1.60
2012,03,11,09,18,3.20
2012,03,11,09,19,1.60
2012,03,11,09,21,1.60
2012,03,11,09,22,3.20
2012,03,11,09,23,3.20
2012,03,11,09,24,3.20
2012,03,11,09,25,4.80
2012,03,11,09,26,4.80
2012,03,11,09,27,16.10
2012,03,11,09,28,12.90
2012,03,11,09,29,9.60
2012,03,11,09,30,9.60
2012,03,11,09,31,6.40
2012,03,11,09,32,6.40
2012,03,11,09,33,6.40
2012,03,11,09,34,4.80
2012,03,11,09,35,4.80
2012,03,11,09,36,4.80
2012,03,11,09,37,4.80
2012,03,11,09,38,4.80
2012,03,11,09,39,6.40
2012,03,11,09,40,4.80
2012,03,11,09,41,3.20
2012,03,11,09,42,3.20
2012,03,11,09,43,4.80
2012,03,11,09,44,1.60
2012,03,11,09,45,1.60
2012,03,11,09,46,4.80
2012,03,11,09,47,8.10
2012,03,11,09,48,3.20
2012,03,11,09,49,3.20
2012,03,11,09,50,3.20
2012,03,11,09,51,1.60
2012,03,11,09,52,3.20
2012,03,11,09,53,4.80
2012,03,11,09,54,1.60
2012,03,11,09,55,1.60
2012,03,11,09,56,4.80
2012,03,11,09,57,8.10
2012,03,11,09,58,8.10
2012,03,11,09,59,9.60
2012,03,11,10,00,9.60
2012,03,11,10,01,9.60
2012,03,11,10,02,12.90
2012,03,11,10,03,12.90
2012,03,11,10,04,14.50
2012,03,11,10,05,8.10
2012,03,11,10,06,8.10
2012,03,11,10,07,4.80
2012,03,11,10,08,3.20
2012,03,11,10,09,8.10
2012,03,11,10,10,8.10
2012,03,11,10,11,6.40
2012,03,11,10,12,6.40
2012,03,11,10,13,6.40
2012,03,11,10,14,6.40
2012,03,11,10,15,6.40
2012,03,11,10,16,4.80
2012,03,11,10,17,6.40
2012,03,11,10,18,8.10
2012,03,11,10,19,6.40
2012,03,11,10,20,6.40
2012,03,11,10,21,6.40
2012,03,11,10,22,6.40
2012,03,11,10,23,6.40
2012,03,11,10,24,9.60
2012,03,11,10,25,8.10
2012,03,11,10,26,8.10
2012,03,11,10,27,4.80
2012,03,11,10,28,4.80
2012,03,11,10,29,4.80
2012,03,11,10,30,3.20
2012,03,11,10,31,3.20
2012,03,11,10,32,8.10
2012,03,11,10,33,6.40
2012,03,11,10,34,4.80
2012,03,11,10,35,4.80
2012,03,11,10,36,6.40
2012,03,11,10,37,6.40
2012,03,11,10,38,4.80
2012,03,11,10,39,6.40
2012,03,11,10,40,9.60
2012,03,11,10,41,8.10
2012,03,11,10,42,6.40
2012,03,11,10,43,4.80
2012,03,11,10,44,1.60
2012,03,11,10,45,1.60
2012,03,11,10,46,4.80
2012,03,11,10,47,4.80
2012,03,11,10,48,4.80
2012,03,11,10,49,4.80
2012,03,11,10,50,4.80
2012,03,11,10,51,4.80
2012,03,11,10,52,4.80
2012,03,11,10,53,1.60
2012,03,11,10,54,3.20
2012,03,11,10,55,4.80
2012,03,11,10,56,3.20
2012,03,11,10,57,4.80
2012,03,11,10,58,4.80
2012,03,11,10,59,4.80
2012,03,11,11,00,3.20
2012,03,11,11,01,3.20
2012,03,11,11,02,3.20
2012,03,11,11,04,1.60
2012,03,11,11,06,4.80
2012,03,11,11,07,4.80
2012,03,11,11,08,4.80
2012,03,11,11,09,4.80
2012,03,11,11,10,6.40
2012,03,11,11,11,6.40
2012,03,11,11,12,3.20
2012,03,11,11,13,3.20
2012,03,11,11,14,3.20
2012,03,11,11,15,3.20
2012,03,11,11,16,3.20
2012,03,11,11,17,4.80
2012,03,11,11,18,3.20
2012,03,11,11,19,6.40
2012,03,11,11,20,3.20
2012,03,11,11,21,6.40
2012,03,11,11,22,6.40
2012,03,11,11,23,3.20
2012,03,11,11,24,3.20
2012,03,11,11,25,6.40
2012,03,11,11,26,8.10
2012,03,11,11,27,8.10
2012,03,11,11,28,9.60
2012,03,11,11,29,9.60
2012,03,11,11,30,9.60
2012,03,11,11,31,16.10
2012,03,11,11,32,14.50
2012,03,11,11,33,20.90
2012,03,11,11,34,19.30
2012,03,11,11,35,11.30
2012,03,11,11,36,12.90
2012,03,11,11,37,22.50
2012,03,11,11,38,16.10
2012,03,11,11,39,12.90
2012,03,11,11,40,19.30
2012,03,11,11,41,16.10
2012,03,11,11,42,9.60
2012,03,11,11,43,24.20
2012,03,11,11,44,17.70
2012,03,11,11,45,9.60
2012,03,11,11,46,8.10
2012,03,11,11,47,11.30
2012,03,11,11,48,9.60
2012,03,11,11,49,16.10
2012,03,11,11,50,11.30
2012,03,11,11,51,16.10
2012,03,11,11,52,9.60
2012,03,11,11,53,22.50
2012,03,11,11,54,20.90
2012,03,11,11,55,14.50
2012,03,11,11,56,19.30
2012,03,11,11,57,12.90
2012,03,11,11,58,14.50
2012,03,11,11,59,22.50
2012,03,11,12,00,17.70
2012,03,11,12,01,19.30
2012,03,11,12,02,19.30
2012,03,11,12,03,19.30
2012,03,11,12,04,24.20
2012,03,11,12,05,22.50
2012,03,11,12,06,19.30
2012,03,11,12,07,17.70
2012,03,11,12,08,17.70
2012,03,11,12,09,12.90
2012,03,11,12,10,9.60
2012,03,11,12,11,16.10
2012,03,11,12,12,14.50
2012,03,11,12,13,12.90
2012,03,11,12,14,16.10
2012,03,11,12,15,8.10
2012,03,11,12,16,4.80
2012,03,11,12,17,1.60
2012,03,11,12,18,6.40
2012,03,11,12,19,11.30
2012,03,11,12,20,9.60
2012,03,11,12,21,9.60
2012,03,11,12,22,8.10
2012,03,11,12,23,6.40
2012,03,11,12,24,8.10
2012,03,11,12,25,8.10
2012,03,11,12,26,8.10
2012,03,11,12,27,12.90
2012,03,11,12,28,9.60
2012,03,11,12,29,9.60
2012,03,11,12,30,11.30
2012,03,11,12,31,12.90
2012,03,11,12,32,9.60
2012,03,11,12,33,11.30
2012,03,11,12,34,11.30
2012,03,11,12,35,11.30
2012,03,11,12,36,8.10
2012,03,11,12,37,8.10
2012,03,11,12,38,8.10
2012,03,11,12,39,8.10
2012,03,11,12,40,9.60
2012,03,11,12,41,11.30
2012,03,11,12,42,9.60
2012,03,11,12,43,8.10
2012,03,11,12,44,11.30
2012,03,11,12,45,11.30
2012,03,11,12,46,11.30
2012,03,11,12,47,9.60
2012,03,11,12,48,14.50
2012,03,11,12,49,9.60
2012,03,11,12,50,11.30
2012,03,11,12,51,11.30
2012,03,11,12,52,14.50
2012,03,11,12,53,9.60
2012,03,11,12,54,9.60
2012,03,11,12,55,11.30
2012,03,11,12,56,12.90
2012,03,11,12,57,12.90
2012,03,11,12,58,12.90
2012,03,11,12,59,14.50
2012,03,11,13,00,17.70
2012,03,11,13,01,9.60
2012,03,11,13,02,16.10
2012,03,11,13,03,17.70
2012,03,11,13,04,17.70
2012,03,11,13,05,17.70
2012,03,11,13,06,20.90
2012,03,11,13,07,17.70
2012,03,11,13,08,14.50
2012,03,11,13,09,19.30
2012,03,11,13,10,25.70
2012,03,11,13,11,27.40
2012,03,11,13,12,20.90
2012,03,11,13,13,24.20
2012,03,11,13,14,24.20
2012,03,11,13,15,25.70
2012,03,11,13,16,24.20
2012,03,11,13,17,20.90
2012,03,11,13,18,22.50
2012,03,11,13,19,19.30
2012,03,11,13,20,19.30
2012,03,11,13,21,17.70
2012,03,11,13,22,19.30
2012,03,11,13,23,20.90
2012,03,11,13,24,22.50
2012,03,11,13,25,16.10
2012,03,11,13,26,30.60
2012,03,11,13,27,20.90
2012,03,11,13,28,20.90
2012,03,11,13,29,25.70
2012,03,11,13,30,12.90
2012,03,11,13,31,20.90
2012,03,11,13,32,12.90
2012,03,11,13,33,20.90
2012,03,11,13,34,14.50
2012,03,11,13,35,16.10
2012,03,11,13,36,9.60
2012,03,11,13,37,9.60
2012,03,11,13,38,16.10
2012,03,11,13,39,17.70
2012,03,11,13,40,24.20
2012,03,11,13,41,20.90
2012,03,11,13,42,16.10
2012,03,11,13,43,22.50
2012,03,11,13,44,25.70
2012,03,11,13,45,25.70
2012,03,11,13,46,27.40
2012,03,11,13,47,17.70
2012,03,11,13,48,19.30
2012,03,11,13,49,17.70
2012,03,11,13,50,22.50
2012,03,11,13,51,17.70
2012,03,11,13,52,24.20
2012,03,11,13,53,24.20
2012,03,11,13,54,20.90
2012,03,11,13,55,16.10
2012,03,11,13,56,16.10
2012,03,11,13,57,19.30
2012,03,11,13,58,20.90
2012,03,11,13,59,22.50
2012,03,11,14,00,17.70
2012,03,11,14,01,22.50
2012,03,11,14,02,25.70
2012,03,11,14,03,25.70
2012,03,11,14,04,20.90
2012,03,11,14,05,12.90
2012,03,11,14,06,14.50
2012,03,11,14,07,16.10
2012,03,11,14,08,12.90
2012,03,11,14,09,12.90
2012,03,11,14,10,11.30
2012,03,11,14,11,16.10
2012,03,11,14,12,24.20
2012,03,11,14,13,17.70
2012,03,11,14,14,12.90
2012,03,11,14,15,12.90
2012,03,11,14,16,20.90
2012,03,11,14,17,11.30
2012,03,11,14,18,16.10
2012,03,11,14,19,12.90
2012,03,11,14,20,14.50
2012,03,11,14,21,16.10
2012,03,11,14,22,11.30
2012,03,11,14,23,14.50
2012,03,11,14,24,11.30
2012,03,11,14,25,14.50
2012,03,11,14,26,11.30
2012,03,11,14,27,9.60
2012,03,11,14,28,12.90
2012,03,11,14,29,6.40
2012,03,11,14,30,11.30
2012,03,11,14,31,16.10
2012,03,11,14,32,9.60
2012,03,11,14,33,11.30
2012,03,11,14,34,11.30
2012,03,11,14,35,14.50
2012,03,11,14,36,17.70
2012,03,11,14,37,12.90
2012,03,11,14,38,9.60
2012,03,11,14,39,11.30
2012,03,11,14,40,11.30
2012,03,11,14,41,9.60
2012,03,11,14,42,11.30
2012,03,11,14,43,14.50
2012,03,11,14,44,12.90
2012,03,11,14,45,14.50
2012,03,11,14,46,12.90
2012,03,11,14,47,12.90
2012,03,11,14,48,29.00
2012,03,11,14,49,30.60
2012,03,11,14,50,35.40
2012,03,11,14,51,32.20
2012,03,11,14,52,24.20
2012,03,11,14,53,14.50
2012,03,11,14,54,22.50
2012,03,11,14,55,14.50
2012,03,11,14,56,19.30
2012,03,11,14,57,14.50
2012,03,11,14,58,9.60
2012,03,11,14,59,9.60
2012,03,11,15,00,8.10
2012,03,11,15,01,6.40
2012,03,11,15,02,11.30
2012,03,11,15,03,9.60
2012,03,11,15,04,14.50
2012,03,11,15,05,17.70
2012,03,11,15,06,16.10
2012,03,11,15,07,12.90
2012,03,11,15,08,6.40
2012,03,11,15,09,11.30
2012,03,11,15,10,12.90
2012,03,11,15,11,11.30
2012,03,11,15,12,9.60
2012,03,11,15,13,11.30
2012,03,11,15,14,12.90
2012,03,11,15,15,16.10
2012,03,11,15,16,12.90
2012,03,11,15,17,11.30
2012,03,11,15,18,14.50
2012,03,11,15,19,9.60
2012,03,11,15,20,14.50
2012,03,11,15,21,14.50
2012,03,11,15,22,9.60
2012,03,11,15,23,12.90
2012,03,11,15,24,11.30
2012,03,11,15,25,14.50
2012,03,11,15,26,11.30
2012,03,11,15,27,8.10
2012,03,11,15,28,4.80
2012,03,11,15,29,4.80
2012,03,11,15,30,3.20
2012,03,11,15,31,8.10
2012,03,11,15,32,6.40
2012,03,11,15,33,3.20
2012,03,11,15,34,1.60
2012,03,11,15,35,4.80
2012,03,11,15,36,3.20
2012,03,11,15,37,3.20
2012,03,11,15,38,8.10
2012,03,11,15,39,8.10
2012,03,11,15,40,6.40
2012,03,11,15,41,3.20
2012,03,11,15,42,3.20
2012,03,11,15,43,3.20
2012,03,11,15,44,6.40
2012,03,11,15,45,1.60
2012,03,11,15,46,3.20
2012,03,11,15,47,6.40
2012,03,11,15,48,3.20
2012,03,11,15,49,1.60
2012,03,11,15,50,3.20
2012,03,11,15,51,8.10
2012,03,11,15,52,6.40
2012,03,11,15,53,9.60
2012,03,11,15,54,9.60
2012,03,11,15,55,9.60
2012,03,11,15,56,8.10
2012,03,11,15,57,11.30
2012,03,11,15,58,9.60
2012,03,11,15,59,8.10
2012,03,11,16,00,9.60
2012,03,11,16,01,9.60
2012,03,11,16,02,9.60
2012,03,11,16,03,8.10
2012,03,11,16,04,20.90
2012,03,11,16,05,17.70
2012,03,11,16,06,14.50
2012,03,11,16,07,24.20
2012,03,11,16,08,22.50
2012,03,11,16,09,20.90
2012,03,11,16,10,22.50
2012,03,11,16,11,19.30
2012,03,11,16,12,24.20
2012,03,11,16,13,29.00
2012,03,11,16,14,22.50
2012,03,11,16,15,24.20
2012,03,11,16,16,20.90
2012,03,11,16,17,25.70
2012,03,11,16,18,45.10
2012,03,11,16,19,35.40
2012,03,11,16,20,25.70
2012,03,11,16,21,40.20
2012,03,11,16,22,33.80
2012,03,11,16,23,32.20
2012,03,11,16,24,27.40
2012,03,11,16,25,33.80
2012,03,11,16,26,37.00
2012,03,11,16,27,41.80
2012,03,11,16,28,37.00
2012,03,11,16,29,33.80
2012,03,11,16,30,30.60
2012,03,11,16,31,37.00
2012,03,11,16,32,46.70
2012,03,11,16,33,37.00
2012,03,11,16,34,33.80
2012,03,11,16,35,29.00
2012,03,11,16,36,30.60
2012,03,11,16,37,19.30
2012,03,11,16,38,19.30
2012,03,11,16,39,25.70
2012,03,11,16,40,24.20
2012,03,11,16,41,24.20
2012,03,11,16,42,24.20
2012,03,11,16,43,19.30
2012,03,11,16,44,22.50
2012,03,11,16,45,17.70
2012,03,11,16,46,24.20
2012,03,11,16,47,19.30
2012,03,11,16,48,19.30
2012,03,11,16,49,19.30
2012,03,11,16,50,14.50
2012,03,11,16,51,9.60
2012,03,11,16,52,9.60
2012,03,11,16,53,11.30
2012,03,11,16,54,9.60
2012,03,11,16,55,16.10
2012,03,11,16,56,14.50
2012,03,11,16,57,14.50
2012,03,11,16,58,14.50
2012,03,11,16,59,14.50
2012,03,11,17,00,14.50
2012,03,11,17,01,12.90
2012,03,11,17,02,11.30
2012,03,11,17,03,11.30
2012,03,11,17,04,9.60
2012,03,11,17,05,11.30
2012,03,11,17,06,11.30
2012,03,11,17,07,14.50
2012,03,11,17,08,17.70
2012,03,11,17,09,17.70
2012,03,11,17,10,12.90
2012,03,11,17,11,11.30
2012,03,11,17,12,16.10
2012,03,11,17,13,11.30
2012,03,11,17,14,11.30
2012,03,11,17,15,9.60
2012,03,11,17,16,12.90
2012,03,11,17,17,11.30
2012,03,11,17,18,19.30
2012,03,11,17,19,14.50
2012,03,11,17,20,9.60
2012,03,11,17,21,11.30
2012,03,11,17,22,9.60
2012,03,11,17,23,12.90
2012,03,11,17,24,11.30
2012,03,11,17,25,12.90
2012,03,11,17,26,17.70
2012,03,11,17,27,17.70
2012,03,11,17,28,24.20
2012,03,11,17,29,16.10
2012,03,11,17,30,12.90
2012,03,11,17,31,11.30
2012,03,11,17,32,9.60
2012,03,11,17,33,11.30
2012,03,11,17,34,8.10
2012,03,11,17,35,8.10
2012,03,11,17,36,6.40
2012,03,11,17,37,20.90
2012,03,11,17,38,17.70
2012,03,11,17,39,12.90
2012,03,11,17,40,19.30
2012,03,11,17,41,20.90
2012,03,11,17,42,22.50
2012,03,11,17,43,25.70
2012,03,11,17,44,29.00
2012,03,11,17,45,24.20
2012,03,11,17,46,19.30
2012,03,11,17,47,29.00
2012,03,11,17,48,40.20
2012,03,11,17,49,24.20
2012,03,11,17,50,22.50
2012,03,11,17,51,29.00
2012,03,11,17,52,22.50
2012,03,11,17,53,33.80
2012,03,11,17,54,33.80
2012,03,11,17,55,30.60
2012,03,11,17,56,35.40
2012,03,11,17,57,27.40
2012,03,11,17,58,20.90
2012,03,11,17,59,20.90
2012,03,11,18,00,16.10
2012,03,11,18,01,16.10
2012,03,11,18,02,17.70
2012,03,11,18,03,12.90
2012,03,11,18,04,12.90
2012,03,11,18,05,17.70
2012,03,11,18,06,14.50
2012,03,11,18,07,14.50
2012,03,11,18,08,14.50
2012,03,11,18,09,16.10
2012,03,11,18,10,14.50
2012,03,11,18,11,9.60
2012,03,11,18,12,11.30
2012,03,11,18,13,8.10
2012,03,11,18,14,9.60
2012,03,11,18,15,11.30
2012,03,11,18,16,14.50
2012,03,11,18,17,14.50
2012,03,11,18,18,19.30
2012,03,11,18,19,12.90
2012,03,11,18,20,12.90
2012,03,11,18,21,9.60
2012,03,11,18,22,14.50
2012,03,11,18,23,11.30
2012,03,11,18,24,16.10
2012,03,11,18,25,16.10
2012,03,11,18,26,16.10
2012,03,11,18,27,14.50
2012,03,11,18,28,14.50
2012,03,11,18,29,16.10
2012,03,11,18,30,9.60
2012,03,11,18,31,8.10
2012,03,11,18,32,6.40
2012,03,11,18,33,9.60
2012,03,11,18,34,3.20
2012,03,11,18,35,6.40
2012,03,11,18,36,6.40
2012,03,11,18,37,3.20
2012,03,11,18,38,6.40
2012,03,11,18,39,6.40
2012,03,11,18,40,3.20
2012,03,11,18,41,9.60
2012,03,11,18,42,14.50
2012,03,11,18,43,12.90
2012,03,11,18,44,9.60
2012,03,11,18,45,8.10
2012,03,11,18,46,14.50
2012,03,11,18,47,20.90
2012,03,11,18,48,14.50
2012,03,11,18,49,11.30
2012,03,11,18,50,19.30
2012,03,11,18,51,14.50
2012,03,11,18,52,14.50